Multibeam Report for NF-08-12-FKNMS


Ship Name: Nancy Foster
Chief Scientist: Donahue, Scott
National Oceanic and Atmospheric Administration
Source Organization: National Oceanic and Atmospheric Administration (NOAA)
Start Date: 2008-08-08
End Date: 2008-08-16


View ISO Metadata

Visit the full NCEI Bathymetry Viewer


Multibeam Bathymetry

Cruise Details

Project:
Instrument: Simrad EM1002

Data Quality

Number of Files: 95
Number of Records: 1187927
BATHYMETRY DATA Quantity Percentage
Number of Beams 131859897 100%
Number of Good Beams 131847558 99.99%
Number of Zero Beams 12339 0.01%
Number of Flagged Beams 0 0%

Navigation Totals

Total Time: 61.6696 hours
Total Track Length: 778.0093 km
Average Speed: 12.616 km/hr (6.8121 knots)

Cruise Bounds

Northern Extent: 25.0091
Southern Extent: 24.3671
Western Extent: -83.1001
Eastern Extent: -80.3086

Limits

Minimum Sonar Depth 3.27 Maximum Sonar Depth 4.26
Minimum Altitude 8.8 Maximum Altitude 117.8
Minimum Depth 10.05 Maximum Depth 723.24

File Information

Full Resolution Bathymetry as collected (raw): 94

Files File Size Description
0001_20080809_224752_raw.all.mb56.gz 27.42MB Simrad multibeam vendor format
0002_20080809_233009_raw.all.mb56.gz 29.30MB Simrad multibeam vendor format
0003_20080810_002429_raw.all.mb56.gz 22.87MB Simrad multibeam vendor format
0004_20080810_005715_raw.all.mb56.gz 42.06MB Simrad multibeam vendor format
0005_20080810_015953_raw.all.mb56.gz 41.15MB Simrad multibeam vendor format
0006_20080810_025803_raw.all.mb56.gz 10.74MB Simrad multibeam vendor format
0007_20080810_031240_raw.all.mb56.gz 13.40MB Simrad multibeam vendor format
0008_20080810_040726_raw.all.mb56.gz 43.25MB Simrad multibeam vendor format
0009_20080810_050613_raw.all.mb56.gz 42.73MB Simrad multibeam vendor format
0010_20080810_060914_raw.all.mb56.gz 34.83MB Simrad multibeam vendor format
0011_20080810_065918_raw.all.mb56.gz 41.10MB Simrad multibeam vendor format
0012_20080810_082305_raw.all.mb56.gz 40.41MB Simrad multibeam vendor format
0013_20080810_091903_raw.all.mb56.gz 15.98MB Simrad multibeam vendor format
0014_20080810_095419_raw.all.mb56.gz 67.50MB Simrad multibeam vendor format
0015_20080810_214707_raw.all.mb56.gz 38.61MB Simrad multibeam vendor format
0016_20080810_224437_raw.all.mb56.gz 37.68MB Simrad multibeam vendor format
0017_20080811_001301_raw.all.mb56.gz 40.86MB Simrad multibeam vendor format
0018_20080811_011033_raw.all.mb56.gz 51.22MB Simrad multibeam vendor format
0019_20080811_023447_raw.all.mb56.gz 23.49MB Simrad multibeam vendor format
0020_20080811_031029_raw.all.mb56.gz 14.16MB Simrad multibeam vendor format
0021_20080811_033145_raw.all.mb56.gz 46.47MB Simrad multibeam vendor format
0022_20080811_043938_raw.all.mb56.gz 36.62MB Simrad multibeam vendor format
0023_20080811_053919_raw.all.mb56.gz 7.70MB Simrad multibeam vendor format
0024_20080811_062436_raw.all.mb56.gz 59.47MB Simrad multibeam vendor format
0025_20080811_080435_raw.all.mb56.gz 60.80MB Simrad multibeam vendor format
0026_20080811_093155_raw.all.mb56.gz 35.41MB Simrad multibeam vendor format
0027_20080812_054859_raw.all.mb56.gz 49.67MB Simrad multibeam vendor format
0028_20080812_063225_raw.all.mb56.gz 48.79MB Simrad multibeam vendor format
0029_20080812_071805_raw.all.mb56.gz 43.66MB Simrad multibeam vendor format
0030_20080812_075757_raw.all.mb56.gz 49.01MB Simrad multibeam vendor format
0031_20080812_084027_raw.all.mb56.gz 49.36MB Simrad multibeam vendor format
0032_20080812_092336_raw.all.mb56.gz 49.03MB Simrad multibeam vendor format
0033_20080812_100245_raw.all.mb56.gz 5.58MB Simrad multibeam vendor format
0034_20080812_102026_raw.all.mb56.gz 47.10MB Simrad multibeam vendor format
0035_20080812_215816_raw.all.mb56.gz 48.65MB Simrad multibeam vendor format
0036_20080812_224103_raw.all.mb56.gz 49.71MB Simrad multibeam vendor format
0037_20080812_232548_raw.all.mb56.gz 2.73MB Simrad multibeam vendor format
0038_20080812_233202_raw.all.mb56.gz 3.80MB Simrad multibeam vendor format
0039_20080812_234612_raw.all.mb56.gz 4.12MB Simrad multibeam vendor format
0040_20080813_000018_raw.all.mb56.gz 46.41MB Simrad multibeam vendor format
0041_20080813_003924_raw.all.mb56.gz 51.31MB Simrad multibeam vendor format
0042_20080813_012217_raw.all.mb56.gz 46.39MB Simrad multibeam vendor format
0043_20080813_020233_raw.all.mb56.gz 46.82MB Simrad multibeam vendor format
0044_20080813_024128_raw.all.mb56.gz 50.13MB Simrad multibeam vendor format
0045_20080813_032419_raw.all.mb56.gz 49.01MB Simrad multibeam vendor format
0046_20080813_042249_raw.all.mb56.gz 51.13MB Simrad multibeam vendor format
0047_20080813_050505_raw.all.mb56.gz 49.99MB Simrad multibeam vendor format
0048_20080813_054607_raw.all.mb56.gz 51.36MB Simrad multibeam vendor format
0049_20080813_062822_raw.all.mb56.gz 51.00MB Simrad multibeam vendor format
0050_20080813_071102_raw.all.mb56.gz 49.26MB Simrad multibeam vendor format
0051_20080813_075004_raw.all.mb56.gz 50.29MB Simrad multibeam vendor format
0052_20080813_083520_raw.all.mb56.gz 50.12MB Simrad multibeam vendor format
0053_20080813_091452_raw.all.mb56.gz 34.29MB Simrad multibeam vendor format
0054_20080813_095407_raw.all.mb56.gz 51.58MB Simrad multibeam vendor format
0055_20080814_001035_raw.all.mb56.gz 48.76MB Simrad multibeam vendor format
0056_20080814_005119_raw.all.mb56.gz 48.20MB Simrad multibeam vendor format
0057_20080814_013037_raw.all.mb56.gz 46.47MB Simrad multibeam vendor format
0058_20080814_020856_raw.all.mb56.gz 48.19MB Simrad multibeam vendor format
0059_20080814_024907_raw.all.mb56.gz 43.36MB Simrad multibeam vendor format
0060_20080814_032543_raw.all.mb56.gz 48.08MB Simrad multibeam vendor format
0061_20080814_040718_raw.all.mb56.gz 43.05MB Simrad multibeam vendor format
0062_20080814_050125_raw.all.mb56.gz 44.29MB Simrad multibeam vendor format
0063_20080814_053847_raw.all.mb56.gz 49.52MB Simrad multibeam vendor format
0064_20080814_062015_raw.all.mb56.gz 41.97MB Simrad multibeam vendor format
0065_20080814_065718_raw.all.mb56.gz 51.44MB Simrad multibeam vendor format
0066_20080814_074118_raw.all.mb56.gz 42.32MB Simrad multibeam vendor format
0067_20080814_081954_raw.all.mb56.gz 40.71MB Simrad multibeam vendor format
0068_20080814_085842_raw.all.mb56.gz 42.31MB Simrad multibeam vendor format
0069_20080814_093738_raw.all.mb56.gz 40.00MB Simrad multibeam vendor format
0070_20080815_010828_raw.all.mb56.gz 40.86MB Simrad multibeam vendor format
0071_20080815_014421_raw.all.mb56.gz 39.02MB Simrad multibeam vendor format
0072_20080815_021907_raw.all.mb56.gz 40.01MB Simrad multibeam vendor format
0073_20080815_025610_raw.all.mb56.gz 39.44MB Simrad multibeam vendor format
0074_20080815_033131_raw.all.mb56.gz 40.57MB Simrad multibeam vendor format
0075_20080815_040911_raw.all.mb56.gz 42.06MB Simrad multibeam vendor format
0076_20080815_044545_raw.all.mb56.gz 39.68MB Simrad multibeam vendor format
0077_20080815_055023_raw.all.mb56.gz 41.53MB Simrad multibeam vendor format
0078_20080815_062530_raw.all.mb56.gz 41.51MB Simrad multibeam vendor format
0079_20080815_070142_raw.all.mb56.gz 41.32MB Simrad multibeam vendor format
0080_20080815_073701_raw.all.mb56.gz 41.11MB Simrad multibeam vendor format
0081_20080815_081128_raw.all.mb56.gz 42.90MB Simrad multibeam vendor format
0082_20080815_085012_raw.all.mb56.gz 41.13MB Simrad multibeam vendor format
0083_20080815_092429_raw.all.mb56.gz 1.36MB Simrad multibeam vendor format
0084_20080815_092955_raw.all.mb56.gz 2.45MB Simrad multibeam vendor format
0085_20080815_093731_raw.all.mb56.gz 39.48MB Simrad multibeam vendor format
0086_20080815_232117_raw.all.mb56.gz 73.19MB Simrad multibeam vendor format
0087_20080816_002349_raw.all.mb56.gz 99.46MB Simrad multibeam vendor format
0088_20080816_020322_raw.all.mb56.gz 8.11MB Simrad multibeam vendor format
0089_20080816_024226_raw.all.mb56.gz 27.59MB Simrad multibeam vendor format
0090_20080816_033602_raw.all.mb56.gz 50.19MB Simrad multibeam vendor format
0091_20080816_043625_raw.all.mb56.gz 66.28MB Simrad multibeam vendor format
0092_20080816_055042_raw.all.mb56.gz 67.20MB Simrad multibeam vendor format
0093_20080816_071518_raw.all.mb56.gz 74.27MB Simrad multibeam vendor format
0094_20080816_091115_raw.all.mb56.gz 78.08MB Simrad multibeam vendor format

Metadata Files: 1

Files File Size Description
NF-08-12-FKNMS_Multibeam.xml NGDC created ISO metadata